FW8419 Weather Reports


Display with metric or nautical units.
time (UTC)temp
F
wind
direction
speed
MPH
gust
MPH
rain 1hr
in
rain 24hr
in
rain mn
in
humidity
%
barometer
mb
20220627025122 85 284 5.0 13.0 0.00 0.00 0.00 33 1013.5
20220627024123 86 284 5.0 14.0 0.00 0.00 0.00 32 1013.6
20220627023123 86 275 5.0 13.0 0.00 0.00 0.00 31 1013.7
20220627022123 87 274 5.0 13.0 0.00 0.00 0.00 31 1013.9
20220627021122 87 281 5.0 14.0 0.00 0.00 0.00 31 1013.9
20220627020122 88 286 6.0 14.0 0.00 0.00 0.00 29 1014.0
20220627015122 88 287 5.0 13.0 0.00 0.00 0.00 30 1014.0
20220627014123 88 288 6.0 18.0 0.00 0.00 0.00 29 1014.0
20220627013122 89 287 5.0 18.0 0.00 0.00 0.00 27 1014.1
20220627012123 89 296 5.0 14.0 0.00 0.00 0.00 27 1014.2
20220627011123 89 306 4.0 13.0 0.00 0.00 0.00 26 1014.4
20220627010122 89 311 5.0 13.0 0.00 0.00 0.00 25 1014.4
20220627005122 89 293 6.0 14.0 0.00 0.00 0.00 26 1014.6
20220627004123 89 322 4.0 16.0 0.00 0.00 0.00 26 1014.6
20220627003123 89 319 5.0 14.0 0.00 0.00 0.00 25 1014.7
20220627002123 88 326 5.0 16.0 0.00 0.00 0.00 26 1014.8
20220627001122 87 322 7.0 19.0 0.00 0.00 0.00 26 1014.9
20220627000122 88 323 7.0 14.0 0.00 0.00 0.00 26 1015.0
20220626235123 88 319 7.0 16.0 0.00 0.00 0.00 27 1015.0
20220626234122 87 326 7.0 16.0 0.00 0.00 0.00 28 1015.2
20220626233122 88 327 7.0 16.0 0.00 0.00 0.00 28 1015.3
20220626232122 88 325 6.0 14.0 0.00 0.00 0.00 28 1015.3
20220626231123 88 317 6.0 14.0 0.00 0.00 0.00 28 1015.5
20220626230122 88 328 5.0 16.0 0.00 0.00 0.00 27 1015.6
20220626225123 89 330 4.0 14.0 0.00 0.00 0.00 28 1015.6
20220626224122 88 310 4.0 13.0 0.00 0.00 0.00 30 1015.7
20220626223123 88 285 5.0 14.0 0.00 0.00 0.00 31 1015.8
20220626222123 88 271 5.0 18.0 0.00 0.00 0.00 31 1015.9
20220626221122 88 289 5.0 14.0 0.00 0.00 0.00 31 1016.0
20220626220122 87 283 6.0 16.0 0.00 0.00 0.00 32 1016.0
20220626215123 87 290 5.0 14.0 0.00 0.00 0.00 32 1016.1
20220626214122 86 286 5.0 14.0 0.00 0.00 0.00 31 1016.2
20220626213122 86 282 6.0 18.0 0.00 0.00 0.00 32 1016.3
20220626212123 86 273 6.0 18.0 0.00 0.00 0.00 32 1016.4
20220626211123 85 291 6.0 16.0 0.00 0.00 0.00 33 1016.5
20220626210123 85 279 6.0 16.0 0.00 0.00 0.00 32 1016.6
20220626205123 85 281 5.0 16.0 0.00 0.00 0.00 33 1016.7
20220626204124 85 284 6.0 16.0 0.00 0.00 0.00 35 1016.7
20220626203123 84 266 5.0 14.0 0.00 0.00 0.00 35 1016.9
20220626202124 84 268 6.0 16.0 0.00 0.00 0.00 34 1017.1
20220626201123 84 258 5.0 18.0 0.00 0.00 0.00 34 1017.2
20220626200123 83 246 5.0 19.0 0.00 0.00 0.00 35 1017.4
20220626195124 82 266 6.0 16.0 0.00 0.00 0.00 36 1017.4
20220626194123 81 258 7.0 16.0 0.00 0.00 0.00 38 1017.5
20220626193123 81 262 6.0 14.0 0.00 0.00 0.00 37 1017.7
20220626192123 81 280 5.0 14.0 0.00 0.00 0.00 39 1017.8
20220626191123 81 252 6.0 16.0 0.00 0.00 0.00 38 1017.9
20220626190123 81 252 5.0 18.0 0.00 0.00 0.00 39 1018.0
20220626185124 80 248 6.0 14.0 0.00 0.00 0.00 38 1018.0
20220626184124 80 246 4.0 16.0 0.00 0.00 0.00 39 1018.2
20220626183124 79 257 4.0 13.0 0.00 0.00 0.00 38 1018.1
20220626182124 79 273 5.0 16.0 0.00 0.00 0.00 41 1018.2
20220626181123 78 285 4.0 14.0 0.00 0.00 0.00 43 1018.3
20220626180123 78 283 5.0 14.0 0.00 0.00 0.00 41 1018.4
20220626175124 78 289 4.0 13.0 0.00 0.00 0.00 41 1018.4
20220626174124 77 288 5.0 13.0 0.00 0.00 0.00 43 1018.5
20220626173123 77 279 5.0 13.0 0.00 0.00 0.00 44 1018.5
20220626172123 77 278 4.0 13.0 0.00 0.00 0.00 42 1018.6
20220626171123 76 302 4.0 11.0 0.00 0.00 0.00 43 1018.6
20220626170123 75 302 4.0 13.0 0.00 0.00 0.00 44 1018.6
20220626165123 74 17 3.0 6.0 0.00 0.00 0.00 45 1018.8
20220626164123 74 20 2.0 6.0 0.00 0.00 0.00 44 1018.9
20220626163123 74 20 2.0 6.0 0.00 0.00 0.00 43 1019.0
20220626162123 73 34 2.0 6.0 0.00 0.00 0.00 43 1019.0
20220626161125 73 64 1.0 5.0 0.00 0.00 0.00 43 1019.0
20220626160123 72 82 2.0 8.0 0.00 0.00 0.00 46 1019.1
20220626155124 71 69 3.0 8.0 0.00 0.00 0.00 46 1019.2
20220626154123 71 63 2.0 6.0 0.00 0.00 0.00 48 1019.2
20220626153123 70 63 3.0 6.0 0.00 0.00 0.00 49 1019.3
20220626152123 70 79 2.0 6.0 0.00 0.00 0.00 49 1019.3
20220626151124 69 90 2.0 6.0 0.00 0.00 0.00 52 1019.3
20220626150123 68 96 2.0 6.0 0.00 0.00 0.00 53 1019.3
20220626145124 67 62 2.0 6.0 0.00 0.00 0.00 56 1019.4
20220626144123 67 93 1.0 5.0 0.00 0.00 0.00 59 1019.4
20220626143123 66 103 2.0 6.0 0.00 0.00 0.00 60 1019.4
20220626142123 65 58 1.0 5.0 0.00 0.00 0.00 61 1019.4
20220626141123 65 71 1.0 5.0 0.00 0.00 0.00 63 1019.3
20220626140123 63 116 2.0 6.0 0.00 0.00 0.00 66 1019.2
20220626135123 63 116 3.0 10.0 0.00 0.00 0.00 66 1019.2
20220626134124 62 98 1.0 5.0 0.00 0.00 0.00 68 1019.2
20220626133123 62 0 0.0 0.0 0.00 0.00 0.00 70 1019.2
20220626132123 61 0 0.0 0.0 0.00 0.00 0.00 71 1019.2
20220626131123 61 0 0.0 0.0 0.00 0.00 0.00 69 1019.2
20220626130123 60 0 0.0 0.0 0.00 0.00 0.00 70 1019.2
20220626125123 60 0 0.0 0.0 0.00 0.00 0.00 72 1019.2
20220626124123 60 0 0.0 0.0 0.00 0.00 0.00 71 1019.3
20220626123123 59 0 0.0 0.0 0.00 0.00 0.00 70 1019.3
20220626122124 59 0 0.0 0.0 0.00 0.00 0.00 70 1019.4
20220626121123 60 0 0.0 0.0 0.00 0.00 0.00 70 1019.4
20220626120123 60 250 0.0 3.0 0.00 0.00 0.00 71 1019.3
20220626115124 60 265 1.0 3.0 0.00 0.00 0.00 71 1019.4
20220626114123 60 0 0.0 0.0 0.00 0.00 0.00 69 1019.2
20220626113123 60 0 0.0 0.0 0.00 0.00 0.00 68 1019.1
20220626112124 61 0 0.0 0.0 0.00 0.00 0.00 67 1019.0
20220626111123 61 0 0.0 0.0 0.00 0.00 0.00 66 1018.9
20220626110123 62 0 0.0 0.0 0.00 0.00 0.00 65 1018.8
20220626105123 62 0 0.0 0.0 0.00 0.00 0.00 65 1018.9
20220626104123 62 102 1.0 3.0 0.00 0.00 0.00 64 1018.9
20220626103123 63 0 0.0 0.0 0.00 0.00 0.00 63 1018.9
20220626102123 63 111 0.0 3.0 0.00 0.00 0.00 62 1018.9
20220626101123 63 102 2.0 5.0 0.00 0.00 0.00 61 1018.9
20220626100123 63 104 2.0 5.0 0.00 0.00 0.00 61 1018.9
20220626095124 63 142 0.0 5.0 0.00 0.00 0.00 61 1018.9
20220626094123 64 0 0.0 0.0 0.00 0.00 0.00 59 1018.9
20220626093123 64 160 0.0 2.0 0.00 0.00 0.00 59 1018.9
20220626092123 64 121 1.0 3.0 0.00 0.00 0.00 57 1018.9
20220626091123 65 0 0.0 0.0 0.00 0.00 0.00 56 1018.9
20220626090123 65 126 0.0 2.0 0.00 0.00 0.00 56 1018.8
20220626085123 66 0 0.0 2.0 0.00 0.00 0.00 56 1018.7
20220626084123 66 20 0.0 5.0 0.00 0.00 0.00 55 1018.6
20220626083123 66 55 2.0 5.0 0.00 0.00 0.00 52 1018.6
20220626082123 67 40 2.0 6.0 0.00 0.00 0.00 52 1018.6
20220626081123 69 100 1.0 3.0 0.00 0.00 0.00 45 1018.5
20220626080123 69 126 4.0 10.0 0.00 0.00 0.00 45 1018.5
20220626075123 69 122 4.0 11.0 0.00 0.00 0.00 45 1018.5
20220626074123 69 121 5.0 13.0 0.00 0.00 0.00 47 1018.4
20220626073123 68 143 4.0 10.0 0.00 0.00 0.00 49 1018.4
20220626072125 69 123 5.0 13.0 0.00 0.00 0.00 50 1018.3
20220626071123 70 119 4.0 11.0 0.00 0.00 0.00 48 1018.3
20220626070128 72 99 4.0 14.0 0.00 0.00 0.00 44 1018.2
20220626065123 72 110 7.0 14.0 0.00 0.00 0.00 42 1018.2
20220626064123 72 101 5.0 13.0 0.00 0.00 0.00 43 1018.1
20220626063123 72 110 5.0 13.0 0.00 0.00 0.00 42 1018.1
20220626062123 72 109 6.0 14.0 0.00 0.00 0.00 42 1018.0
20220626061123 73 105 4.0 11.0 0.00 0.00 0.00 43 1018.0
20220626060123 73 109 4.0 13.0 0.00 0.00 0.00 42 1017.9
20220626055123 73 116 6.0 14.0 0.00 0.00 0.00 42 1017.9
20220626054123 73 108 4.0 11.0 0.00 0.00 0.00 43 1017.9
20220626053123 73 98 2.0 5.0 0.00 0.00 0.00 46 1017.9
20220626052123 74 0 0.0 0.0 0.00 0.00 0.00 46 1017.9
20220626051123 75 0 0.0 0.0 0.00 0.00 0.00 44 1017.8
20220626050123 75 0 0.0 0.0 0.00 0.00 0.00 43 1017.8
20220626045123 76 0 0.0 0.0 0.00 0.00 0.00 42 1017.8
20220626044123 77 134 1.0 5.0 0.00 0.00 0.00 41 1017.7
20220626043123 78 0 0.0 0.0 0.00 0.00 0.00 38 1017.7
20220626042124 79 0 0.0 0.0 0.00 0.00 0.00 37 1017.7
20220626041123 80 0 0.0 0.0 0.00 0.00 0.00 37 1017.6
20220626040123 81 0 0.0 0.0 0.00 0.00 0.00 34 1017.7
20220626035123 81 270 1.0 5.0 0.00 0.00 0.00 33 1017.8
20220626034123 82 295 1.0 5.0 0.00 0.00 0.00 31 1017.8
20220626033123 82 299 3.0 8.0 0.00 0.00 0.00 30 1017.8
20220626032123 83 298 3.0 10.0 0.00 0.00 0.00 29 1017.9
20220626031124 83 303 4.0 13.0 0.00 0.00 0.00 28 1017.8
20220626030123 83 298 4.0 13.0 0.00 0.00 0.00 28 1017.8